TimeCST,TemperatureF,Dew PointF,Humidity,Sea Level PressureIn,VisibilityMPH,Wind Direction,Wind SpeedMPH,Gust SpeedMPH,PrecipitationIn,Events,Conditions,WindDirDegrees,DateUTC
12:52 AM,-0.9,-4.0,87,30.36,7.0,Calm,Calm,-,N/A,,Partly Cloudy,0,1999-01-01 06:52:00
1:52 AM,-0.9,-4.0,87,30.35,7.0,North,6.9,-,N/A,,Partly Cloudy,350,1999-01-01 07:52:00
2:52 AM,-2.0,-6.0,83,30.37,6.0,North,6.9,-,N/A,,Scattered Clouds,10,1999-01-01 08:52:00
3:09 AM,-0.4,-4.0,85,30.30,6.0,North,5.8,-,N/A,,Mostly Cloudy,10,1999-01-01 09:09:00
3:21 AM,1.4,-2.2,85,30.30,4.0,NNE,5.8,-,N/A,,Mostly Cloudy,20,1999-01-01 09:21:00
3:31 AM,-0.4,-2.2,92,30.30,6.0,NNE,8.1,-,N/A,,Mostly Cloudy,20,1999-01-01 09:31:00
3:52 AM,1.9,-0.9,88,30.37,6.0,NNE,6.9,-,N/A,,Scattered Clouds,30,1999-01-01 09:52:00
4:37 AM,3.2,-0.4,85,30.32,7.0,ENE,8.1,-,N/A,,Partly Cloudy,60,1999-01-01 10:37:00
4:52 AM,3.9,1.0,88,30.38,8.0,NE,9.2,-,N/A,,Scattered Clouds,50,1999-01-01 10:52:00
5:52 AM,3.9,-0.0,84,30.39,8.0,East,8.1,-,N/A,,Overcast,80,1999-01-01 11:52:00
6:52 AM,7.0,1.9,80,30.41,9.0,East,11.5,-,N/A,,Overcast,90,1999-01-01 12:52:00
7:52 AM,7.0,1.9,80,30.40,9.0,East,13.8,-,N/A,,Overcast,90,1999-01-01 13:52:00
8:52 AM,8.1,1.0,73,30.39,10.0,ENE,18.4,-,N/A,,Overcast,70,1999-01-01 14:52:00
9:52 AM,8.1,-0.0,70,30.41,10.0,East,15.0,-,0.00,,Mostly Cloudy,100,1999-01-01 15:52:00
10:52 AM,9.0,-0.0,67,30.40,10.0,East,17.3,-,N/A,,Partly Cloudy,100,1999-01-01 16:52:00
11:52 AM,10.9,1.0,64,30.36,10.0,East,15.0,-,N/A,,Scattered Clouds,100,1999-01-01 17:52:00
12:52 PM,10.0,1.0,67,30.34,10.0,ESE,19.6,-,N/A,,Overcast,110,1999-01-01 18:52:00
1:13 PM,10.4,1.4,67,30.27,1.8,ESE,20.7,-,0.00,Snow,Light Snow,110,1999-01-01 19:13:00
1:31 PM,10.4,3.2,73,30.26,0.8,East,17.3,-,0.00,Snow,Light Snow,100,1999-01-01 19:31:00
1:43 PM,10.4,3.2,73,30.26,0.8,East,20.7,25.3,0.00,Snow,Light Snow,100,1999-01-01 19:43:00
1:52 PM,10.0,3.9,76,30.31,0.8,ESE,17.3,-,0.00,Snow,Light Snow,110,1999-01-01 19:52:00
2:52 PM,10.0,5.0,80,30.30,1.0,East,13.8,-,0.00,Snow,Light Snow,100,1999-01-01 20:52:00
3:22 PM,10.4,6.8,85,30.24,0.5,East,15.0,-,0.00,Fog-Snow,Snow,100,1999-01-01 21:22:00
3:38 PM,10.4,6.8,85,30.24,0.2,East,13.8,-,0.00,Fog-Snow,Snow,100,1999-01-01 21:38:00
3:52 PM,10.0,6.1,84,30.31,0.5,East,15.0,-,0.01,Fog-Snow,Snow,100,1999-01-01 21:52:00
4:52 PM,10.0,7.0,87,30.29,0.8,East,17.3,-,0.00,Snow,Light Snow,90,1999-01-01 22:52:00
4:55 PM,10.4,8.6,92,30.23,1.0,East,15.0,-,0.00,Snow,Light Snow,90,1999-01-01 22:55:00
4:57 PM,10.4,8.6,92,30.23,0.8,East,17.3,-,0.00,Snow,Light Snow,90,1999-01-01 22:57:00
5:36 PM,10.4,8.6,92,30.23,1.0,East,18.4,-,0.01,Snow,Light Snow,90,1999-01-01 23:36:00
5:52 PM,12.0,8.1,84,30.29,1.0,East,16.1,-,0.01,Snow,Light Snow,90,1999-01-01 23:52:00
5:59 PM,12.2,8.6,85,30.22,0.8,East,18.4,-,0.00,Snow,Light Snow,90,1999-01-01 23:59:00
6:15 PM,12.2,8.6,85,30.21,0.8,East,17.3,-,0.00,Snow,Light Snow,90,1999-01-02 00:15:00
6:25 PM,12.2,8.6,85,30.21,1.0,East,18.4,-,0.00,Snow,Light Snow,90,1999-01-02 00:25:00
6:28 PM,12.2,8.6,85,30.21,0.8,East,19.6,-,0.00,Snow,Light Snow,90,1999-01-02 00:28:00
6:52 PM,12.9,10.0,88,30.27,0.8,East,17.3,-,0.01,Snow,Light Snow,90,1999-01-02 00:52:00
7:41 PM,14.0,10.4,86,30.21,1.0,East,16.1,-,0.00,Snow,Light Snow,90,1999-01-02 01:41:00
7:52 PM,14.0,10.9,88,30.26,1.0,East,18.4,-,0.00,Snow,Light Snow,90,1999-01-02 01:52:00
8:42 PM,15.8,12.2,86,30.19,0.8,East,17.3,-,0.01,Snow,Light Snow,100,1999-01-02 02:42:00
8:52 PM,15.1,12.0,88,30.24,0.8,East,17.3,-,0.01,Snow,Light Snow,100,1999-01-02 02:52:00
9:09 PM,15.8,12.2,86,30.17,1.0,East,17.3,-,0.00,Snow,Light Snow,90,1999-01-02 03:09:00
9:27 PM,15.8,12.2,86,30.16,0.8,East,18.4,-,0.00,Snow,Light Snow,90,1999-01-02 03:27:00
9:37 PM,15.8,12.2,86,30.15,1.0,East,23.0,-,0.00,Snow,Light Snow,90,1999-01-02 03:37:00
9:44 PM,15.8,12.2,86,30.15,1.0,East,21.9,-,0.00,Snow,Light Snow,90,1999-01-02 03:44:00
9:52 PM,16.0,12.9,88,30.21,1.2,East,20.7,-,0.00,Snow,Light Snow,90,1999-01-02 03:52:00
10:01 PM,15.8,12.2,86,30.15,1.0,East,21.9,-,0.00,Snow,Light Snow,90,1999-01-02 04:01:00
10:29 PM,15.8,12.2,86,30.14,1.0,East,19.6,-,0.01,Snow,Light Snow,90,1999-01-02 04:29:00
10:52 PM,17.1,12.9,84,30.19,1.5,East,18.4,-,0.01,Snow,Light Snow,80,1999-01-02 04:52:00
11:52 PM,16.0,12.9,88,30.14,1.0,East,23.0,29.9,0.00,Snow,Light Snow,80,1999-01-02 05:52:00